Погода в им. Воровского

Россия / Владимирская область     55°43′25″N   41°07′11″E
темп.,
°C
ветер,
м/с
пор.,
м/с
влажн.,
%
обл.,
%
осадки,
мм/ч
давл.,
гПа
погр.,
м
15 апреля, чт
чт1500:00+11ююв2264100 0.0 101816
03:00+9ююв2271100 0.0 101811
06:00+9юв1170100 0.0 101810
09:00+15юв2351100 0.0 1018241
12:00+19вюв2335100 0.0 10171108
15:00+20в2230100 0.0 10172146
18:00+16всв2547100 0.0 101794
21:00+12св51273100 0.0 1019356
16 апреля, пт
пт1600:00+9св51292100 0.0 1019382
03:00+8всв51295100 0.0 1020371
06:00+7всв51190100 0.0 1021413
09:00+9всв597762 0.0 1022509
12:00+14всв575891 0.0 1022913
15:00+15всв675698 0.0 10221177
18:00+13всв5966100 0.0 1022957
21:00+9всв51378100 0.0 1024690
17 апреля, сб
сб1700:00+8всв51382100 0.0 1024607
03:00+6всв5137979 0.0 1024466
06:00+5всв5137137 0.0 1025465
09:00+9всв610555 0.0 1026630
12:00+13всв68485 0.0 10251114
15:00+14всв68415 0.0 10251402
18:00+12всв58385 0.0 10251087
21:00+7св412570 0.0 1026323
18 апреля, вс
вс1800:00+5св312680 0.0 1027312
03:00+3св39760 0.0 1028205
06:00+2св38800 0.0 1029195
09:00+9всв47530 0.0 1029899
12:00+12всв57370 0.0 10281538
15:00+13всв46355 0.0 10281818
18:00+12всв47465 0.0 1029718
21:00+6св39665 0.0 1030180
19 апреля, пн
пн1900:00+6в411765 0.0 1032398
03:00+3в398599 0.0 1033264
06:00+3в3882100 0.0 1035310
09:00+6в4756100 0.0 1035825
12:00+9в5634100 0.0 10341349
15:00+10вюв563354 0.0 10341572
18:00+8в474080 0.0 1034870
21:00+4вюв41151100 0.0 1034384